Location: Julian California
(33.0790°N, 116.6010°W)
Time: 04:56:53
(UTC-07:00)

Cosmos 2208 Rocket - Pass Details

Date: 12 July 2018
Orbit: 754 x 806 km, 74.0° (Epoch: 21 July)

Event Time Altitude Azimuth Distance (km) Brightness Sun altitude
Rises 21:53:01 0° 345° (NNW) 3,319 8.3 -20.4°
Reaches altitude 10° 21:55:27 10° 348° (NNW) 2,387 7.4 -20.8°
Maximum altitude 22:00:53 72° 73° (ENE) 847 4.0 -21.6°
Enters shadow 22:02:20 48° 140° (SE) 1,036 4.2 -21.8°
